863  
ASUS41 KBOX 210910  
RWRBOX  
 
REGIONAL WEATHER ROUNDUP  
NATIONAL WEATHER SERVICE TAUNTON MA  
400 AM EST WED FEB 21 2018  
 
NOTE: "FAIR" INDICATES FEW OR NO CLOUDS BELOW 12,000 FEET WITH NO  
SIGNIFICANT WEATHER AND/OR S TO VISIBILITY
.  
 
MAZALL-211000-  
EASTERN MASSACHUSETTS  
 
CITY SKY/WX TMP DP RH WIND PRES REMARKS
 
BOSTON FAIR 50 49 96 SW9 30.24F  
BEVERLY FAIR 41 40 96 E5 30.22F  
LAWRENCE FAIR 39 36 89 NE5 30.24F  
BEDFORD FAIR 54 51 90 SW7 30.22F  
BLUE HILL N/A 53 52 96 S17 30.23F  
NORWOOD FAIR 52 50 93 S5 30.25F  
MARSHFIELD FAIR 57 57 100 SW10G20 30.25S  
PLYMOUTH CLOUDY 56 55 97 SW12 30.28F  
TAUNTON CLOUDY 55 54 96 S7 30.28S FOG  
NEW BEDFORD MOCLDY 55 55 100 SW10G20 30.28F  

 
 
MAZALL-211000-  
CAPE COD AND THE ISLANDS  
 
CITY SKY/WX TMP DP RH WIND PRES REMARKS
 
FALMOUTH FOG 48 48 100 SW13G20 30.32 VSB<1/4  
HYANNIS N/A N/A N/A N/A MISG 30.28F  
CHATHAM FOG 49 49 100 SW12G23 30.33R VSB 1/2  
PROVINCETOWN FOG 45 45 100 S15 30.28F VSB 1/2  
NANTUCKET FOG 45 45 100 SW12 30.33F VSB 1/4  
MARTHAS VNYRD FOG N/A N/A N/A SW14G22 30.32F VSB 1/2  

 
 
MAZALL-211000-  
CENTRAL AND WESTERN MASSACHUSETTS  
 
CITY SKY/WX TMP DP RH WIND PRES REMARKS
 
WORCESTER FOG 49 32 52 SW10 30.24F VSB 1  
FITCHBURG FAIR 63 56 78 W10 30.22F  
ORANGE FOG 33 33 100 CALM 30.25F VSB 1/4  
SPRINGFIELD MOCLDY 48 48 100 S5 30.25  
WESTFIELD FOG 49 49 100 S5 30.26R VSB 1/2  
NORTH ADAMS FAIR 50 47 89 VRB3 30.22F  
PITTSFIELD FAIR 55 51 86 W6 30.23F  

 
 
RIZALL-211000-  
RHODE ISLAND  
 
CITY SKY/WX TMP DP RH WIND PRES REMARKS
 
PROVIDENCE CLOUDY 57 56 96 SW10 30.29S  
NEWPORT FOG 50 50 100 SW5 30.31S VSB 1/4  
BLOCK ISLAND LGT RAIN 46 46 100 SW17 30.33F VSB 1/2  
SMITHFIELD MOCLDY 55 54 94 VRB7 30.27F  
WESTERLY FOG 52 52 100 SW6 30.32S VSB 1/4  

 
 
CTZALL-211000-  
CONNECTICUT  
 
CITY SKY/WX TMP DP RH WIND PRES REMARKS
 
BRADLEY INTL FOG 49 49 100 S6 30.27S VSB 1/4  
HARTFORD CLOUDY 53 52 96 S9 30.28S FOG  
BRIDGEPORT FOG 47 46 97 CALM 30.30S VSB 1/4  
DANBURY CLOUDY 58 57 97 SW10 30.29S FOG  
GROTON FOG 48 47 96 CALM 30.31F VSB 1/4  
NEW HAVEN FOG 47 46 97 CALM 30.30S VSB<1/4  
CHESTER FOG 54 54 100 VRB5 30.30S VSB<1/4  
MERIDEN FOG 49 49 100 S8 30.29F VSB 1/4  
WILLIMANTIC FOG 47 46 97 CALM 30.30S VSB 1/2  
OXFORD LGT RAIN 53 53 100 VRB5 30.30S VSB 1/4  

 
 
MEZ002-015-021-024-NHZ003-005-008-011-012-014-VTZ005-008-211000-  
NORTHERN NEW ENGLAND  
 
CITY SKY/WX TMP DP RH WIND PRES REMARKS
 
PORTLAND ME FOG 36 36 100 SW5 30.23F VSB 1/4  
BANGOR ME FOG 36 36 100 SW3 30.21F VSB 1/4  
CONCORD NH FOG 36 34 92 CALM 30.22F VSB 1/4  
MANCHESTER NH FAIR 37 35 92 N3 30.21S  
NASHUA NH FAIR 36 36 100 CALM 30.22F  
PORTSMOUTH NH FOG 36 36 99 CALM 30.21F VSB 3/8  
JAFFREY NH FOG 36 N/A N/A CALM 30.23F VSB 1/4  
KEENE NH CLOUDY 32 31 96 CALM 30.24F  
BURLINGTON VT FAIR 60 51 72 S17G28 30.08F  
MT. WASHINGTON PTCLDY 45 43 93 W59G66 N/A WCI 31  

 
 
NYZ052-076-211000-  
EASTERN NEW YORK  
 
CITY SKY/WX TMP DP RH WIND PRES REMARKS
 
ALBANY FAIR 57 51 80 S10 30.19F  
NEW YORK CITY FOG 50 48 93 S8 30.30S VSB<1/4  

 
 
ANZALL-211000-  
MARINE OBSERVATIONS  
 
STATION/POSITION TIME TEMP WIND PRES VSBY WAVE
 
AIR SEA DIR/SP/G HT/PER  
(UTC) (F) (DEG/KT/KT) (MB) (MI) (FT/S)  
BOSTON BUOY 0850 46 40 180/ 10/ 10 1023.1F 2/11  
BUZZARDS BAY 0800 44 240/ 15/ 17 1027.2R  
NANTUCKET SOUND 0850 41 38 230/ 8/ 10 1026.8R 2/ 3  
MASS BAY-STELLWA 0804 42 39 1023.0F 3/11  
ISLE OF SHOALS 0900 38 CALM / 1 1023.5F  
S OF BLOCK IS 0843 39 N/A 5/ 7  

 
   
.....................KEY......................
 
 
SKY/WX - SKY CONDITION/PRESENT WEATHER  
TMP - TEMPERATURE IN FAHRENHEIT  
DWPT - DEWPOINT IN FAHRENHEIT  
RH - RELATIVE HUMIDITY IN PERCENT  
WIND - DIRECTION AND SPEED IN MPH  
PRES - MEAN SEA LEVEL PRESSURE IN INCHES OF HG  
WCI - WIND CHILL INDEX  
VSB - VISIBILITY IN MILES  
HX - HEAT INDEX  
TC - TEMPERATURE IN CELSIUS  
VRB - VARIABLE WIND DIRECTION  
N/A - NOT AVAILABLE  
 
 
CLICK HERE TO GO TO PREVIOUS BULLETINS.

The Nexlab MA Page
The Nexlab RI Page
The Nexlab NH Page
The Nexlab CT Page Main Text Page